Location: U-46 Planetarium
(42.0300°N, 88.2740°W)
Time: 15:56:34
(UTC-06:00)

COSMO-SKYMED 1 - Pass Details

Date: 16 December 2017
Orbit: 621 x 623 km, 97.9° (Epoch: 23 January)

Event Time Altitude Azimuth Distance (km) Brightness Sun altitude
Exits shadow 18:22:07 14° 2° (N) 1,768 4.7 -21.3°
Maximum altitude 18:25:47 56° 287° (WNW) 747 3.2 -22.0°
Drops below altitude 10° 18:30:01 10° 209° (SSW) 1,985 5.7 -22.7°
Sets 18:32:13 0° 205° (SSW) 2,886 6.5 -23.1°
